星链-35273(STARLINK-35273)

导读 | 豆包AI

STARLINK-35273是美国太空探索技术公司Starlink星链星座的一颗运营中卫星,于2025年9月26日,在美国加利福尼亚州空军西部试验场发射升空。该卫星NORAD编号为65805,国际空间站编号为2025-218Q,轨道倾角97.602°,平均轨道高度约556.6千米,轨道周期95.639分钟,目前运行正常,属于星链低轨互联网卫星星座组网的一部分。

Basic Information
目录编号:
65805
目录名称:
STARLINK-35273
国际标识:
2025-218Q
轨道中心:
EARTH
卫星名称:
星链-35273
卫星全名:
星链-35273(STARLINK-35273)
卫星状态:
在轨 (已飞行215 天)
发射日期:
2025-09-26 UTC
国别 :
美国 (US)
星等 :
--
Orbit Information
数据来源 国际轨道数据 AOE轨道数据
星历时间 2026-04-29T12:08:24+0800
4小时前
查看轨道信息
2026-04-22T21:00:00+0800
6天前
查看轨道信息
半长轴 6927.663km 6927.71km
偏心率 0.000237 0.0002319
轨道倾角 97.560° 97.591°
近地点辐角 86.725° 93.681°
升交点赤经 342.642° 336.129°
平近点角 273.425° 347.791°
近地点 547.884km 547.966km
远地点 551.168km 551.18km
周期 95.640分钟 95.641分钟
每日圈数 15.056453 15.056301
Detailed Information
固有亮度:
5
最大亮度:
2.5
卫星平台:
Starlink V1.0
覆盖范围:
全球
运营商:
太空探索技术公司
运营商所在国:
美国
制造商(研发单位):
太空探索技术公司
制造商所在国:
美国
使用方式:
暂无
Satellite Introduction
Starlink 计划是 SpaceX 推出的全球卫星互联网项目,通过发射低轨道卫星,为全球尤其是偏远地区提供高速、低延迟的互联网服务。自 2019 年起,Starlink 已部署数千颗卫星,旨在缩小全球数字鸿沟,推动互联网普及。该项目还为军事、航空等行业提供通信支持,带来广泛经济效益。
2D Orbit Map
3D Orbit Map
Orbit Altitude Analysis Chart
Orbit Inclination Analysis Chart
Orbit Comprehensive Analysis Chart
View Comprehensive Chart